Regional Weather Roundup
Issued by NWS

Home | Current Version | Previous Version | Text Only | Print | Product List | Glossary On
Versions: 1 2 3 4 5 6 7 8 9 10 11 12 13 14 15 16 17 18 19 20 21 22 23 24 25 26 27
000
ASUS44 KLIX 232311
RWRLA
LOUISIANA WEATHER ROUNDUP
NATIONAL WEATHER SERVICE NEW ORLEANS LA
600 PM CDT SAT JUL 23 2016

NOTE: "FAIR" INDICATES FEW OR NO CLOUDS BELOW 12,000 FEET WITH NO
      SIGNIFICANT WEATHER AND/OR OBSTRUCTIONS TO VISIBILITY.
      SKY/WX - SKY CONDITION AND SIGNIFICANT WEATHER.
      TMP - AIR TEMPERATURE.    DP   - DEWPOINT TEMPERATURE.
      RH  - RELATIVE HUMIDITY.  PRES - PRESSURE.
      HX  - HEAT INDEX.         WCI  - WIND CHILL INDEX.

*  THESE STATIONS ARE NOT NWS OR FAA STATIONS AND ARE NOT UNDER
   NWS QUALITY CONTROL.

LAZ040-048-061>063-065-066-069-240000-
SOUTHEAST LOUISIANA

CITY           SKY/WX    TMP DP  RH WIND       PRES   REMARKS
N.O. AUDUBON   NOT AVBL
N.O. INTL ARPT PTSUNNY   92  74  55 SW8       29.92F HX 101
N.O. LAKEFRONT MOSUNNY   90  75  61 SW9       29.93F HX 100
N.O. DOWNTOWN* NOT AVBL
RESERVE*       FAIR      79  74  84 CALM      29.93F
SLIDELL        MOSUNNY   89  77  67 S9        29.93F HX 101
BATON ROUGE    CLOUDY    81  72  74 S9        29.93F
BOOTHVILLE     MOSUNNY   84  74  71 SW3       29.94F
BELLE CHASSE   MOSUNNY   88  77  69 VRB3      29.93F HX 100
BOGALUSA*      MOCLDY    87  75  67 SW6       29.94S HX  95
GALLIANO*      MOCLDY    91  77  64 SW9       29.94R HX 104
NEW ROADS*     FAIR      87  77  72 S5        29.93R HX  99
GONZALES*      TSTM      76  75  97 W7        29.94F
HAMMOND*       MOSUNNY   88  70  55 SW8       29.93S
HOUMA*         MOSUNNY   88  79  74 SW6       29.95R HX 102
PORT FOURCHON* MOCLDY    88  75  66 SW7       29.94S HX  97

$$

LAZ041-044-053-054-240000-
SOUTHWEST LOUISIANA

CITY           SKY/WX    TMP DP  RH WIND       PRES   REMARKS
LAKE CHARLES   SUNNY     91  74  57 S8        29.90F HX 100
LAFAYETTE      MOSUNNY   93  73  52 VRB6      29.91F HX 102
PATTERSON      MOSUNNY   89  77  67 SW6       29.95R HX 101
SALT POINT       N/A     90  76  63 VRB3      29.92S HX 101
NEW IBERIA     MOSUNNY   90  76  63 SW6       29.92F HX 101
CHENAULT AIRPK MOSUNNY   91  75  59 S7        29.91F HX 102

$$

LAZ027-028-240000-
CENTRAL LOUISIANA

CITY           SKY/WX    TMP DP  RH WIND       PRES   REMARKS
FORT POLK      SUNNY     95  73  48 SW7       29.89F HX 104
ALEXANDRIA INT CLOUDY    94  76  55 MISG      29.87F HX 106
ALEXANDRIA     MOSUNNY   92  78  63 E3        29.90F HX 107

$$

LAZ001-002-240000-
NORTHWEST LOUISIANA

CITY           SKY/WX    TMP DP  RH WIND       PRES   REMARKS
SHREVEPORT     MOSUNNY   98  75  47 S5        29.87F HX 110
BARKSDALE AFB  CLOUDY    98  74  45 SE7       29.88S THUNDER HX 109
DTN SHREVEPORT MOSUNNY   96  75  50 E6        29.87F THUNDER HX 108

$$

LAZ014-016-240000-
NORTHEAST LOUISIANA

CITY           SKY/WX    TMP DP  RH WIND       PRES   REMARKS
MONROE         SUNNY     95  77  55 E3        29.88F HX 109
TALLULAH       MOSUNNY   88  74  63 NE16G28   29.91S HX  96

$$





USA.gov is the U.S. government's official web portal to all federal, state and local government web resources and services.